Ozark, AL

3:17 PM CDT on May 27, 2018 (GMT -0500)
Cairns Army Air Field

Weather History for KOZR - October, 2012

Change the Weather History Date:

Friday, October 5, 2012

  Actual Average Record
Temperature  
Mean Temperature 72 °F -  
Max Temperature 81 °F 77 °F 89 °F (1998)
Min Temperature 64 °F 59 °F 43 °F (2014)
Cooling Degree Days 7    
Growing Degree Days 22 (Base 50)    
Moisture  
Dew Point 67 °F    
Average Humidity 93    
Maximum Humidity 100    
Minimum Humidity 73    
Precipitation  
Precipitation 0.13 in - - ()
Sea Level Pressure  
Sea Level Pressure 30.12 in    
Wind  
Wind Speed 4 mph (NE)    
Max Wind Speed 9 mph    
Max Gust Speed -    
Visibility 5 miles    
Events Fog , Rain    
Averages and records for this station are not official NWS values.
T = Trace of Precipitation, MM = Missing Value Source: NWS Daily Summary

Daily Weather History Graph

Daily Weather History Graph

Search for Another Location

Airport or City:

Astronomy

Oct. 05, 2012 Rise Set
Actual Time 6:39 AM CDT 6:22 PM CDT
Civil Twilight 6:15 AM CDT 6:46 PM CDT
Nautical Twilight 5:47 AM CDT 7:14 PM CDT
Astronomical Twilight 5:18 AM CDT 7:42 PM CDT
Moon 10:02 PM CDT (10/5) 11:28 AM CDT (10/5)
Length of Visible Light 12h 31m
Length of Day
11h 42m
Waning Gibbous, 74% of the Moon is Illuminated
Oct 5
Waning Gibbous
Oct 8
Last Quarter
Oct 15
New
Oct 21
First Quarter
Oct 29
Full

Hourly Weather History & Observations

Time (CDT) Temp. Heat Index Dew Point Humidity Pressure Visibility Wind Dir Wind Speed Gust Speed Precip Events Conditions
12:55 AM 66.9 °F - 64.0 °F 90% 30.15 in 10.0 mi NNE 3.5 mph - N/A   Clear
1:55 AM 66.4 °F - 64.0 °F 92% 30.15 in 10.0 mi Calm Calm - N/A   Clear
2:10 AM 66.2 °F - 64.4 °F 94% 30.14 in 10.0 mi NW 3.5 mph - N/A   Partly Cloudy
2:19 AM 66.2 °F - 64.4 °F 94% 30.14 in 10.0 mi NNW 3.5 mph - N/A   Mostly Cloudy
2:42 AM 66.2 °F - 64.4 °F 94% 30.14 in 9.0 mi NNE 3.5 mph - N/A   Mostly Cloudy
2:47 AM 66.2 °F - 64.4 °F 94% 30.14 in 2.5 mi Calm Calm - N/A   Mostly Cloudy
2:48 AM 66.2 °F - 64.4 °F 94% 30.14 in 1.8 mi Calm Calm - N/A   Mostly Cloudy
2:49 AM 66.2 °F - 64.4 °F 94% 30.13 in 1.5 mi Calm Calm - N/A   Mostly Cloudy
2:50 AM 66.2 °F - 64.4 °F 94% 30.13 in 1.0 mi Calm Calm - N/A   Mist
2:51 AM 66.2 °F - 64.4 °F 94% 30.13 in 0.8 mi Calm Calm - N/A   Mist
2:53 AM 66.2 °F - 64.4 °F 94% 30.13 in 0.5 mi ENE 3.5 mph - N/A Fog Fog
2:55 AM 66.0 °F - 65.1 °F 97% 30.13 in 0.5 mi NE 3.5 mph - N/A Fog Fog
2:56 AM 66.2 °F - 64.4 °F 94% 30.13 in 0.2 mi ENE 3.5 mph - N/A Fog Fog
2:58 AM 66.2 °F - 64.4 °F 94% 30.13 in 0.2 mi NE 3.5 mph - N/A Fog Fog
3:05 AM 66.2 °F - 64.4 °F 94% 30.13 in 0.5 mi NNE 3.5 mph - N/A Fog Fog
3:09 AM 66.2 °F - 64.4 °F 94% 30.13 in 0.5 mi NNE 3.5 mph - N/A Fog Fog
3:10 AM 66.2 °F - 64.4 °F 94% 30.13 in 0.5 mi NNE 4.6 mph - N/A Fog Fog
3:12 AM 66.2 °F - 64.4 °F 94% 30.13 in 0.5 mi NNE 3.5 mph - N/A Fog Fog
3:14 AM 66.2 °F - 64.4 °F 94% 30.13 in 0.8 mi NNE 4.6 mph - N/A   Mist
3:18 AM 66.2 °F - 64.4 °F 94% 30.13 in 1.0 mi NNE 4.6 mph - N/A   Mist
3:21 AM 66.2 °F - 64.4 °F 94% 30.13 in 1.2 mi NNE 4.6 mph - N/A   Scattered Clouds
3:24 AM 66.2 °F - 64.4 °F 94% 30.13 in 1.5 mi NNE 4.6 mph - N/A   Scattered Clouds
3:30 AM 66.2 °F - 64.4 °F 94% 30.12 in 1.5 mi North 4.6 mph - N/A   Mostly Cloudy
3:31 AM 66.2 °F - 64.4 °F 94% 30.13 in 1.2 mi North 4.6 mph - N/A   Mostly Cloudy
3:33 AM 66.2 °F - 64.4 °F 94% 30.13 in 1.0 mi North 4.6 mph - N/A   Mist
3:37 AM 66.2 °F - 64.4 °F 94% 30.13 in 0.8 mi North 4.6 mph - N/A   Mist
3:44 AM 66.2 °F - 64.4 °F 94% 30.13 in 1.0 mi North 4.6 mph - N/A   Mist
3:51 AM 66.2 °F - 64.4 °F 94% 30.12 in 1.2 mi North 4.6 mph - N/A   Mostly Cloudy
3:54 AM 66.2 °F - 64.4 °F 94% 30.13 in 1.5 mi North 4.6 mph - N/A   Mostly Cloudy
3:55 AM 65.8 °F - 65.1 °F 98% 30.13 in 1.8 mi North 4.6 mph - N/A   Mostly Cloudy
3:57 AM 66.2 °F - 64.4 °F 94% 30.12 in 2.0 mi North 4.6 mph - N/A   Mostly Cloudy
4:05 AM 66.2 °F - 64.4 °F 94% 30.12 in 1.8 mi NNE 3.5 mph - N/A   Mostly Cloudy
4:10 AM 66.2 °F - 66.2 °F 100% 30.13 in 1.2 mi NNE 4.6 mph - N/A   Mostly Cloudy
4:11 AM 66.2 °F - 66.2 °F 100% 30.13 in 1.0 mi NNE 4.6 mph - N/A   Mist
4:14 AM 66.2 °F - 66.2 °F 100% 30.12 in 0.8 mi NNE 4.6 mph - N/A   Mist
4:19 AM 66.2 °F - 66.2 °F 100% 30.12 in 0.5 mi NE 4.6 mph - N/A Fog Fog
4:23 AM 66.2 °F - 64.4 °F 94% 30.13 in 0.5 mi ENE 3.5 mph - N/A Fog Fog
4:26 AM 66.2 °F - 64.4 °F 94% 30.13 in 0.5 mi NE 3.5 mph - N/A Fog Fog
4:34 AM 64.4 °F - 64.4 °F 100% 30.13 in 0.5 mi NE 3.5 mph - N/A Fog Fog
4:37 AM 64.4 °F - 64.4 °F 100% 30.13 in 0.5 mi NNE 4.6 mph - N/A Fog Fog
4:39 AM 64.4 °F - 64.4 °F 100% 30.13 in 0.5 mi NNE 3.5 mph - N/A Fog Fog
4:41 AM 64.4 °F - 64.4 °F 100% 30.14 in 0.8 mi NNE 3.5 mph - N/A   Mist
4:43 AM 64.4 °F - 64.4 °F 100% 30.14 in 0.8 mi NNE 3.5 mph - N/A   Mist
4:48 AM 64.4 °F - 64.4 °F 100% 30.13 in 0.8 mi NNE 4.6 mph - N/A   Mist
4:49 AM 64.4 °F - 64.4 °F 100% 30.13 in 0.5 mi NNE 3.5 mph - N/A Fog Fog
4:53 AM 64.4 °F - 64.4 °F 100% 30.13 in 0.5 mi NNE 4.6 mph - N/A Fog Fog
4:54 AM 64.4 °F - 64.4 °F 100% 30.13 in 0.5 mi NNE 4.6 mph - N/A Fog Fog
4:55 AM 65.1 °F - 64.8 °F 99% 30.13 in 0.2 mi NNE 4.6 mph - N/A Fog Fog
4:56 AM 64.4 °F - 64.4 °F 100% 30.13 in 0.2 mi North 4.6 mph - N/A Fog Fog
5:13 AM 66.2 °F - 64.4 °F 94% 30.14 in 0.5 mi North 4.6 mph - N/A Fog Fog
5:36 AM 66.2 °F - 64.4 °F 94% 30.14 in 0.5 mi North 4.6 mph - N/A Fog Fog
5:48 AM 66.2 °F - 64.4 °F 94% 30.14 in 0.5 mi North 3.5 mph - N/A Fog Fog
5:50 AM 66.2 °F - 64.4 °F 94% 30.14 in 0.8 mi NNE 4.6 mph - N/A   Mist
5:55 AM 65.5 °F - 65.1 °F 99% 30.14 in 1.0 mi North 4.6 mph - N/A   Mist
5:57 AM 66.2 °F - 64.4 °F 94% 30.14 in 1.2 mi North 5.8 mph - N/A   Overcast
5:59 AM 66.2 °F - 64.4 °F 94% 30.14 in 1.5 mi North 4.6 mph - N/A   Overcast
6:02 AM 66.2 °F - 66.2 °F 100% 30.14 in 2.0 mi NNE 4.6 mph - N/A   Overcast
6:07 AM 66.2 °F - 66.2 °F 100% 30.14 in 3.0 mi NNE 5.8 mph - N/A   Overcast
6:13 AM 66.2 °F - 66.2 °F 100% 30.14 in 1.0 mi North 4.6 mph - N/A   Overcast
6:18 AM 66.2 °F - 66.2 °F 100% 30.14 in 1.0 mi North 4.6 mph - N/A   Overcast
6:51 AM 66.2 °F - 66.2 °F 100% 30.14 in 0.5 mi ENE 3.5 mph - N/A Fog Fog
6:55 AM 65.5 °F - 65.3 °F 99% 30.14 in 0.5 mi NE 3.5 mph - N/A Fog Fog
7:02 AM 66.2 °F - 64.4 °F 94% 30.15 in 1.2 mi ENE 3.5 mph - N/A   Overcast
7:05 AM 66.2 °F - 64.4 °F 94% 30.14 in 1.5 mi NE 3.5 mph - N/A   Overcast
7:07 AM 66.2 °F - 64.4 °F 94% 30.14 in 2.0 mi NE 4.6 mph - N/A   Overcast
7:08 AM 66.2 °F - 64.4 °F 94% 30.14 in 2.0 mi NE 4.6 mph - N/A   Overcast
7:11 AM 66.2 °F - 64.4 °F 94% 30.14 in 3.0 mi NE 4.6 mph - N/A   Overcast
7:12 AM 66.2 °F - 64.4 °F 94% 30.14 in 3.0 mi NE 5.8 mph - N/A   Overcast
7:21 AM 66.2 °F - 66.2 °F 100% 30.15 in 6.0 mi ENE 5.8 mph - N/A   Overcast
7:23 AM 66.2 °F - 66.2 °F 100% 30.15 in 8.0 mi ENE 5.8 mph - N/A   Overcast
7:35 AM 66.2 °F - 66.2 °F 100% 30.14 in 9.0 mi NE 4.6 mph - N/A   Mostly Cloudy
7:50 AM 66.2 °F - 66.2 °F 100% 30.14 in 10.0 mi NE 5.8 mph - N/A   Mostly Cloudy
7:55 AM 65.8 °F - 65.5 °F 99% 30.14 in 10.0 mi NE 6.9 mph - N/A   Mostly Cloudy
7:58 AM 66.2 °F - 66.2 °F 100% 30.15 in 10.0 mi NE 5.8 mph - N/A   Mostly Cloudy
8:03 AM 66.2 °F - 66.2 °F 100% 30.15 in 10.0 mi NE 6.9 mph - N/A   Overcast
8:16 AM 66.2 °F - 66.2 °F 100% 30.15 in 10.0 mi NNE 5.8 mph - N/A   Overcast
8:35 AM 66.2 °F - 66.2 °F 100% 30.15 in 10.0 mi NE 5.8 mph - N/A   Overcast
8:44 AM 66.2 °F - 66.2 °F 100% 30.15 in 10.0 mi NNE 8.1 mph - N/A   Overcast
8:55 AM 67.3 °F - 66.7 °F 98% 30.15 in 10.0 mi NE 8.1 mph - N/A   Overcast
9:42 AM 69.8 °F - 68.0 °F 94% 30.15 in 10.0 mi NE 9.2 mph - N/A   Overcast
9:55 AM 69.4 °F - 67.6 °F 94% 30.15 in 10.0 mi NE 8.1 mph - N/A   Overcast
10:00 AM 69.8 °F - 68.0 °F 94% 30.15 in 10.0 mi NE 8.1 mph - N/A   Overcast
10:26 AM 69.8 °F - 68.0 °F 94% 30.16 in 10.0 mi East 4.6 mph - N/A   Overcast
10:34 AM 69.8 °F - 68.0 °F 94% 30.16 in 8.0 mi Calm Calm - N/A   Light Drizzle
10:43 AM 69.8 °F - 68.0 °F 94% 30.15 in 2.5 mi East 3.5 mph - N/A Rain Light Rain
10:46 AM 69.8 °F - 68.0 °F 94% 30.15 in 1.8 mi ENE 5.8 mph - N/A Rain Heavy Rain
10:47 AM 69.8 °F - 68.0 °F 94% 30.15 in 1.5 mi ENE 5.8 mph - N/A Rain Heavy Rain
10:55 AM 69.6 °F - 68.5 °F 96% 30.14 in 1.5 mi ENE 6.9 mph - 0.12 in Rain Rain
10:57 AM 69.8 °F - 68.0 °F 94% 30.14 in 2.0 mi NE 6.9 mph - N/A Rain Light Rain
11:01 AM 69.8 °F - 69.8 °F 100% 30.15 in 3.0 mi NE 6.9 mph - N/A Rain Light Rain
11:06 AM 69.8 °F - 69.8 °F 100% 30.15 in 9.0 mi NE 8.1 mph - N/A Rain Light Rain
11:10 AM 69.8 °F - 69.8 °F 100% 30.15 in 10.0 mi NE 8.1 mph - N/A   Scattered Clouds
11:32 AM 71.6 °F - 69.8 °F 94% 30.14 in 10.0 mi ENE 5.8 mph - N/A   Mostly Cloudy
11:34 AM 71.6 °F - 69.8 °F 94% 30.14 in 10.0 mi ENE 4.6 mph - N/A   Light Drizzle
11:42 AM 71.6 °F - 69.8 °F 94% 30.14 in 10.0 mi ENE 4.6 mph - N/A   Mostly Cloudy
11:46 AM 71.6 °F - 69.8 °F 94% 30.14 in 10.0 mi NE 4.6 mph - N/A   Overcast
11:55 AM 72.0 °F - 70.5 °F 95% 30.14 in 10.0 mi NE 6.9 mph - 0.01 in   Overcast
12:19 PM 73.4 °F - 71.6 °F 94% 30.13 in 10.0 mi ENE 5.8 mph - N/A   Overcast
12:23 PM 75.2 °F - 71.6 °F 89% 30.12 in 10.0 mi NE 6.9 mph - N/A   Light Drizzle
12:27 PM 75.2 °F - 71.6 °F 89% 30.12 in 10.0 mi NE 6.9 mph - N/A   Light Drizzle
12:31 PM 75.2 °F - 71.6 °F 89% 30.12 in 10.0 mi NE 6.9 mph - N/A   Overcast
12:48 PM 75.2 °F - 71.6 °F 89% 30.11 in 10.0 mi NE 4.6 mph - N/A   Overcast
12:55 PM 75.2 °F - 71.4 °F 88% 30.11 in 10.0 mi NE 6.9 mph - 0.00 in   Mostly Cloudy
12:59 PM 75.2 °F - 71.6 °F 89% 30.11 in 10.0 mi Variable 4.6 mph - N/A   Mostly Cloudy
1:33 PM 77.0 °F - 71.6 °F 83% 30.09 in 10.0 mi ENE 2.3 mph - N/A   Mostly Cloudy
1:38 PM 77.0 °F - 71.6 °F 83% 30.09 in 10.0 mi Variable 5.8 mph - N/A   Mostly Cloudy
1:55 PM 78.4 °F - 71.6 °F 79% 30.08 in 10.0 mi East 5.8 mph - N/A   Mostly Cloudy
2:11 PM 78.8 °F - 71.6 °F 78% 30.07 in 10.0 mi East 5.8 mph - N/A   Scattered Clouds
2:55 PM 79.7 °F - 71.6 °F 76% 30.04 in 10.0 mi ESE 3.5 mph - N/A   Scattered Clouds
3:02 PM 80.6 °F 84.6 °F 71.6 °F 74% 30.04 in 10.0 mi East 5.8 mph - N/A   Mostly Cloudy
3:14 PM 80.6 °F 84.6 °F 71.6 °F 74% 30.04 in 10.0 mi Variable 4.6 mph - N/A   Mostly Cloudy
3:34 PM 78.8 °F - 71.6 °F 78% 30.03 in 10.0 mi East 6.9 mph - N/A   Mostly Cloudy
3:39 PM 78.8 °F - 71.6 °F 78% 30.03 in 10.0 mi East 5.8 mph - N/A   Overcast
3:55 PM 80.6 °F 84.4 °F 71.4 °F 73% 30.03 in 10.0 mi East 3.5 mph - N/A   Mostly Cloudy
4:25 PM 80.6 °F 84.6 °F 71.6 °F 74% 30.01 in 10.0 mi East 6.9 mph - N/A   Mostly Cloudy
4:34 PM 80.6 °F 84.6 °F 71.6 °F 74% 30.01 in 10.0 mi Variable 4.6 mph - N/A   Scattered Clouds
4:36 PM 80.6 °F 84.6 °F 71.6 °F 74% 30.01 in 10.0 mi ESE 4.6 mph - N/A   Mostly Cloudy
4:38 PM 80.6 °F 84.6 °F 71.6 °F 74% 30.01 in 10.0 mi East 4.6 mph - N/A   Scattered Clouds
4:39 PM 80.6 °F 84.6 °F 71.6 °F 74% 30.01 in 10.0 mi East 5.8 mph - N/A   Mostly Cloudy
4:44 PM 80.6 °F 84.6 °F 71.6 °F 74% 30.01 in 10.0 mi Variable 5.8 mph - N/A   Scattered Clouds
4:46 PM 80.6 °F 84.6 °F 71.6 °F 74% 30.01 in 10.0 mi East 4.6 mph - N/A   Mostly Cloudy
4:55 PM 79.9 °F - 71.1 °F 74% 30.01 in 10.0 mi East 5.8 mph - N/A   Scattered Clouds
5:55 PM 78.3 °F - 71.6 °F 80% 30.01 in 10.0 mi ESE 3.5 mph - N/A   Partly Cloudy
6:55 PM 75.4 °F - 72.0 °F 89% 30.01 in 10.0 mi ESE 3.5 mph - N/A   Overcast
7:55 PM 73.6 °F - 71.2 °F 92% 30.02 in 10.0 mi ESE 3.5 mph - N/A   Clear
8:55 PM 72.9 °F - 70.7 °F 93% 30.04 in 10.0 mi ESE 4.6 mph - N/A   Partly Cloudy
9:55 PM 71.6 °F - 70.2 °F 95% 30.04 in 10.0 mi ESE 3.5 mph - N/A   Clear
10:55 PM 70.9 °F - 69.6 °F 96% 30.04 in 10.0 mi Calm Calm - N/A   Scattered Clouds
11:55 PM 70.7 °F - 69.4 °F 96% 30.03 in 10.0 mi Calm Calm - N/A   Scattered Clouds